COSMOS 1285 DEB, 12993

Orbit data source: Space-Track

COSMOS 1285 DEB, 12993 is space debris in HEO originally from a launch on Tue, 04 Aug 1981 UTC launched from the Plesetsk Missile And Space Complex (PKMTR). Debris objects in space refer to the collection of defunct objects orbiting the Earth. Examples of debris include non-operational satellites, rocket bodies, and fragments generated from explosions, collisions, or faulty payload assembly.

Loading next visibility...
Identifier
12993, 1981-071E
Orbit
HEO
Country
Flag of CISCIS
Related business
Manufacturer
Unknown
Mission
Spacecraft
Bus & Motor
Unknown
Mass
Unknown
Launch date (UTC)
1981-08-04 (45 years ago)
Launch vehicle
Unknown
Launch site
Plesetsk Missile And Space Complex (PKMTR)
Object type
Payload
Rocket body
Debris
Shape & HBR
Unknown shape, 1.4 m
Radar Cross Section
Large (>1 m²)

Expand to show TLE details & history
Last TLE update: 5 days ago

TLE from 5 days ago
0 COSMOS 1285 DEB
1 12993U 81071E   26259.50073454  .00000221  00000-0  00000-0 0  9998
2 12993  67.3401  76.3207 6405496   4.7415 359.1740  1.97853998240012
Epoch: 2026-09-16T12:01Z
TLE epoch observation values (Epoch: 2026-09-16T12:01:03.464Z)
Latitude
-0.00023°
Longitude
-99.40868°
Altitude
3,279.607 km
Speed
8.227 km/s
True Right ascension
05h 05m 13s
True Declination
0° 00' 01"
Sunlit
Object was in daylight at epoch
Visualization orbit readout
Latitude
Unknown
Longitude
Unknown
Altitude
Unknown
Speed
Unknown
Apparent Right ascension
Unknown
Apparent Declination
Unknown
Sunlit
N/A
Visualization observer readout
Local Sidereal Time
00:44:05
Azimuth
Unknown
Elevation
Unknown
Doppler factor
Unknown
Orbital elements
Apogee altitude
37,590.73 km
Perigee altitude
3,255.602 km
Semi-major axis
26,801.303 km
Eccentricity
0.64055
Inclination
67.3401°
RAAN
76.3207°
Arg. of periapsis
4.7415°
True anomaly
355.09542°
Mean anomaly
359.174°
Eccentric anomaly
357.70314°
Mean motion
0.49466 °/min
Orbital period
727.77 mins
BSTAR
0
Loading maneuver chart data...
Computing Atmospheric mass density...
Loading historical data...
Loading historical data...
Loading historical data...
Loading historical data...
Loading historical data...
Loading historical data...
Loading historical data...

Documentation

Showing up to 5 results
|